Location: Cluj-Napoca
(46.7712°N, 23.6236°E)
Time: 06:19:41
(UTC+02:00)

ISS - Pass Details

Date: 23 February 2020
Orbit: 415 x 423 km, 51.6° (Epoch: 27 February)

Event Time Altitude Azimuth Distance (km) Brightness Sun altitude
Exits shadow 05:21:53 - 174° (S) 1,650 -0.8 -20.5°
Reaches altitude 10° 05:22:32 10° 165° (SSE) 1,494 -0.9 -20.4°
Maximum altitude 05:24:16 14° 134° (SE) 1,300 -0.8 -20.1°
Drops below altitude 10° 05:26:01 10° 102° (ESE) 1,502 0.1 -19.8°
Sets 05:28:55 0° 75° (ENE) 2,373 1.7 -19.3°
